Location: ??????
(38.0131°N, 23.7723°E)
Time: 17:39:19
(UTC+00:00)

METEOR 2-5 DEB - Pass Details

Date: 16 August 2022
Orbit: 809 x 849 km, 81.2° (Epoch: 29 September)

Event Time Altitude Azimuth Distance (km) Brightness Sun altitude
Rises 19:15:59 0° 351° (N) 3,351 ? -21.4°
Reaches altitude 10° 19:18:24 10° 352° (N) 2,411 ? -21.8°
Maximum altitude 19:23:51 85° 82° (E) 818 ? -22.6°
Enters shadow 19:25:25 48° 166° (SSE) 1,046 ? -22.9°
